Wind_Speed
20 20 20 20 21 21 21 20 25 28 27 27 25 25 24 25 24 24 24 24 24 24 25 24 23 21 19 17 15 13 12 12 12 12 12 12 12 12 11 11 11 11 10 11 11 12 12 12 11 10 9 7 5 4 3 3 5 6 8 9 10 10 11 12 11 11 12 14 17 18 18 16 14 13 11 11 9 7 6 6 6 5 5 6 7
19 20 20 20 21 21 21 21 26 28 27 26 25 24 24 24 24 24 24 24 24 24 25 23 22 21 18 15 13 12 12 12 12 13 12 12 12 11 10 10 10 10 10 10 10 10 10 10 11 10 9 7 5 3 2 2 3 5 7 9 9 8 9 11 11 10 11 13 16 17 18 18 16 14 12 11 11 9 8 7 7 7 8 9 9
19 21 22 21 22 22 22 23 26 27 26 26 24 24 24 24 23 23 24 24 24 24 23 22 21 20 17 14 12 12 12 13 13 13 12 11 11 11 10 10 10 9 9 9 9 9 9 9 10 10 9 7 5 4 3 3 4 5 6 8 8 8 8 10 11 10 10 12 15 17 17 18 17 15 13 12 12 11 10 10 10 11 11 11 11
20 22 24 23 23 23 22 23 25 26 25 24 23 24 24 23 22 23 24 25 24 23 22 21 21 18 15 12 11 12 13 13 13 13 12 11 10 11 11 11 10 10 9 8 8 8 9 9 9 9 9 8 6 6 5 5 5 6 6 7 7 7 8 9 10 10 10 11 13 16 16 16 16 15 14 13 12 12 13 12 12 13 13 13 12
22 23 25 25 24 23 22 23 24 24 24 23 22 23 24 22 22 24 25 25 23 21 20 20 20 17 14 12 11 12 13 13 13 13 11 10 11 11 11 11 11 10 9 8 8 8 8 8 8 8 8 8 7 6 6 6 6 7 6 6 7 7 8 9 9 9 9 9 10 13 15 15 15 14 13 13 13 13 14 14 13 13 13 13 12
24 24 25 26 25 24 23 23 24 23 22 22 22 23 23 22 23 24 25 24 22 20 20 20 18 15 13 11 12 12 12 13 13 12 11 10 11 11 10 11 10 9 9 8 7 7 8 7 7 8 8 8 8 7 7 6 7 8 7 7 7 8 9 9 9 9 8 9 9 11 13 14 15 14 13 13 12 12 12 13 13 13 13 13 12
25 25 25 25 25 24 24 24 24 23 23 23 23 23 22 23 23 24 25 23 21 20 20 19 17 14 12 11 12 11 11 12 11 10 10 10 11 10 10 10 9 8 8 8 8 8 7 7 7 8 8 9 9 8 8 8 8 8 7 7 8 8 8 9 9 9 8 9 9 10 12 13 14 14 13 13 12 12 11 11 11 12 12 12 11
26 25 25 25 25 25 25 24 24 23 24 24 23 22 22 22 23 24 24 22 20 19 19 17 15 13 11 11 11 10 10 11 10 9 9 10 10 9 9 9 9 9 9 9 8 8 8 7 8 9 9 9 10 9 8 9 10 9 8 8 8 8 8 9 9 9 9 10 9 11 12 11 12 12 12 12 12 11 10 9 9 10 10 10 10
26 26 26 26 26 25 25 25 24 24 24 25 23 22 22 22 23 23 22 21 20 19 17 16 13 11 10 10 9 8 9 9 9 8 9 9 9 8 9 9 9 10 10 10 9 8 8 7 9 11 10 10 10 10 10 9 10 10 8 8 8 9 9 8 8 9 9 10 10 10 11 11 10 10 10 10 11 10 9 8 8 8 8 8 8
25 25 25 25 25 25 25 25 25 25 24 25 24 22 22 22 22 22 22 20 19 18 16 14 12 10 10 9 7 7 8 8 8 7 8 8 9 8 9 9 9 10 11 11 9 8 9 9 10 12 12 11 11 12 12 10 10 10 9 8 9 10 10 9 8 8 7 9 11 10 10 9 8 9 9 8 8 8 7 7 6 6 6 6 6
24 24 25 25 24 25 25 25 25 25 25 24 24 23 22 22 21 21 21 20 18 17 15 13 11 10 9 8 6 5 7 7 6 6 7 8 9 8 9 9 9 10 10 9 9 10 10 11 12 13 12 11 12 13 14 12 11 10 9 8 9 10 9 9 9 7 6 7 9 8 8 8 7 8 8 7 7 7 5 4 4 4 4 5 5
23 24 25 24 24 24 24 24 23 23 24 23 23 22 22 21 20 19 19 19 18 16 15 13 11 9 9 7 5 4 5 6 5 6 7 8 8 8 8 8 9 10 9 8 9 10 11 12 13 14 12 12 12 14 15 14 11 10 9 9 9 10 9 9 9 7 7 7 7 7 8 8 6 7 6 5 6 6 5 3 3 3 3 4 5
22 23 24 24 23 23 24 23 23 23 23 23 22 21 20 20 19 18 18 17 17 15 14 12 10 9 8 6 5 4 5 5 5 6 7 8 8 8 8 8 9 10 9 9 9 11 11 12 14 13 13 13 13 14 15 14 12 11 10 9 9 9 9 10 9 8 7 7 8 8 8 9 7 6 6 5 4 5 6 4 2 2 3 4 5
20 21 22 23 23 23 22 22 22 22 22 22 21 20 20 19 18 17 17 16 16 14 13 11 10 9 8 6 5 5 5 5 5 6 8 7 8 8 8 9 10 10 10 10 10 11 11 12 13 12 13 13 13 13 14 14 13 12 11 10 9 9 8 9 9 8 7 7 7 8 8 9 7 6 5 5 4 4 5 5 3 2 3 5 6
19 20 21 21 22 22 21 21 21 20 21 21 20 20 19 19 18 18 17 15 15 13 12 10 9 8 8 7 6 5 5 5 6 7 8 7 8 9 9 10 10 10 11 11 10 10 10 11 12 12 12 12 12 12 13 13 14 13 12 11 10 9 8 8 8 9 8 8 7 7 7 8 7 7 5 4 4 4 4 4 4 3 3 5 6
19 20 21 21 21 22 21 21 20 20 20 20 20 19 19 19 19 18 16 15 14 13 11 10 9 9 9 8 7 6 5 5 6 7 7 8 9 9 9 10 10 10 12 12 12 11 10 11 12 11 11 12 11 11 12 13 13 13 12 11 10 9 9 8 8 8 9 8 7 6 6 7 7 7 7 5 4 3 3 2 3 3 3 4 4
20 20 20 20 21 21 21 21 20 19 19 19 19 19 19 19 18 17 16 15 14 13 11 10 10 9 9 8 7 5 5 6 7 6 8 9 9 9 9 10 10 10 12 12 12 12 12 12 12 11 11 11 10 10 10 11 12 12 11 10 9 9 8 8 8 8 9 8 7 6 5 5 6 7 7 6 5 3 2 2 2 2 3 3 3
20 19 19 20 20 21 20 20 20 19 19 19 19 19 18 18 17 16 15 14 13 12 12 11 11 10 9 8 7 6 5 6 6 6 8 8 8 8 9 9 9 9 10 11 12 11 11 11 11 10 10 10 10 10 9 10 11 11 11 10 9 8 8 7 7 7 8 8 8 8 6 5 5 6 6 6 7 6 4 2 1 1 2 2 3
20 20 20 20 20 20 20 19 19 19 18 18 18 18 17 17 16 15 14 14 13 13 12 12 11 10 8 7 7 6 6 5 5 6 6 6 6 7 7 8 8 8 8 8 10 10 9 9 9 9 10 10 10 10 9 9 10 10 10 10 9 8 9 9 8 7 8 8 7 8 8 7 5 4 5 5 7 7 6 5 3 1 1 2 2
20 20 20 20 20 20 19 19 18 18 18 18 18 17 17 16 15 14 14 14 14 13 13 11 10 9 8 6 6 6 5 4 4 4 4 4 5 6 6 6 6 6 6 6 7 8 7 8 8 9 10 11 11 10 9 9 10 10 11 11 9 8 9 9 9 8 8 8 7 6 7 7 5 4 4 5 6 6 6 5 4 2 1 1 2
20 20 19 19 20 19 19 19 18 18 18 18 17 17 16 16 16 15 14 14 14 13 12 10 9 8 7 6 5 5 4 4 4 3 3 3 4 5 5 5 5 5 5 4 5 6 6 6 7 8 9 10 9 9 10 10 11 12 12 12 11 10 9 9 8 8 8 8 7 6 6 6 5 4 4 4 5 5 4 4 4 3 2 1 1
20 19 19 19 19 19 19 19 18 18 18 18 17 17 16 16 16 16 15 14 14 12 11 10 8 7 6 5 5 4 4 4 4 2 2 2 3 4 4 5 4 4 4 4 4 4 5 6 7 7 8 8 8 9 10 10 12 13 12 13 12 12 11 10 9 8 8 8 6 5 5 4 4 3 3 3 3 3 3 3 3 3 3 2 1
19 19 19 18 18 19 19 19 17 17 18 17 17 17 17 16 16 15 15 14 13 12 11 9 7 6 5 4 4 4 3 3 3 2 1 2 3 4 5 5 4 4 4 4 4 3 4 6 7 6 6 7 8 9 10 11 12 13 14 14 13 12 12 12 11 9 8 8 7 6 4 3 3 2 2 2 2 2 2 2 1 2 3 2 1
18 18 19 19 18 19 18 18 17 17 17 17 17 16 16 16 15 14 13 13 12 11 9 8 7 5 4 3 3 3 3 3 3 2 2 2 4 5 4 4 4 4 4 4 5 5 5 6 6 5 5 6 8 9 11 12 13 14 14 14 13 12 12 13 12 10 9 8 8 7 5 4 3 2 1 1 1 1 2 2 2 1 2 2 2
17 18 18 19 19 18 17 17 17 16 16 16 15 15 15 15 14 13 12 12 11 10 8 7 6 5 3 3 3 3 3 2 2 2 2 3 4 3 2 3 3 4 4 5 6 5 5 6 6 6 7 7 9 11 12 14 15 15 15 13 13 13 13 14 12 10 9 9 8 7 6 6 5 3 2 1 1 1 2 3 3 3 2 1 1
18 18 18 18 18 18 17 16 16 15 15 15 14 14 14 13 13 12 11 10 9 8 6 5 4 3 3 2 2 2 2 2 1 1 2 3 3 2 2 2 3 4 4 5 5 5 5 6 6 7 8 7 9 12 13 14 15 16 16 14 12 12 12 13 13 10 9 10 9 9 8 7 7 6 4 3 2 1 2 3 3 4 3 2 0
18 18 17 17 17 17 16 15 14 14 14 14 13 13 13 12 11 11 9 8 7 6 5 4 3 2 2 2 2 2 2 2 1 1 1 2 2 2 2 2 3 3 3 4 4 4 5 5 5 5 6 7 10 12 13 13 14 15 15 14 13 11 11 12 12 10 9 9 10 10 9 8 8 8 7 5 4 3 3 3 3 3 4 3 2
17 17 17 17 16 16 15 14 13 13 13 12 12 12 11 11 10 9 8 7 6 5 4 4 3 3 3 2 2 2 1 1 0 2 1 1 2 3 2 1 2 2 3 3 2 3 4 4 5 5 6 8 10 12 13 14 14 13 13 13 12 11 11 11 11 9 9 9 8 9 9 8 8 9 8 7 6 4 4 4 3 3 4 4 3
18 17 17 16 16 15 14 13 12 12 12 11 11 10 10 10 9 9 8 7 6 5 4 4 4 4 3 2 1 1 1 0 1 1 1 1 2 3 3 2 1 1 2 2 2 3 4 3 5 5 7 9 10 10 12 14 14 12 11 11 11 11 12 12 10 8 8 7 5 6 8 8 8 9 9 8 8 6 5 4 4 3 3 5 5
17 16 16 16 16 15 13 13 12 11 11 10 10 9 9 9 8 8 7 7 6 5 5 5 5 4 2 1 1 2 2 1 2 2 1 1 2 3 4 2 1 1 2 3 4 6 5 5 6 7 8 9 9 9 11 14 14 13 11 11 12 12 12 11 10 7 5 5 4 5 5 5 7 9 9 8 8 7 6 5 5 4 4 5 6
18 17 16 16 15 15 14 13 12 11 10 9 9 9 9 9 8 7 7 7 6 6 6 5 4 3 2 1 2 3 3 2 3 3 3 3 4 4 5 4 3 3 4 5 5 6 6 7 8 9 9 9 10 11 11 13 14 14 12 13 14 13 11 9 9 7 4 4 4 5 4 3 6 8 10 9 9 8 7 6 5 5 5 5 6
18 17 16 16 15 14 14 13 12 12 11 10 10 9 9 8 8 8 7 7 7 7 6 6 4 2 3 2 3 4 4 3 3 3 4 5 5 5 6 6 4 5 5 5 5 6 7 8 9 10 10 11 11 12 12 13 14 15 15 15 15 13 11 9 8 7 5 4 4 5 4 1 3 6 9 9 9 9 8 7 6 6 6 6 6
17 16 16 15 14 14 14 13 12 12 11 11 10 9 9 8 8 8 8 8 8 8 7 7 5 3 4 4 4 5 5 4 4 4 5 6 7 7 8 7 6 6 5 5 6 8 9 9 10 10 10 11 12 13 12 12 14 16 17 16 14 13 11 10 7 5 4 4 3 2 2 2 1 3 5 7 8 9 9 8 7 7 7 7 7
16 16 15 14 14 13 13 13 12 11 11 11 11 10 10 9 9 9 9 8 8 8 8 8 6 5 4 4 5 5 5 4 5 6 6 7 8 8 8 7 6 7 7 7 7 9 9 9 10 10 10 11 12 12 12 13 15 17 17 15 13 12 11 11 7 4 4 4 4 2 1 2 1 1 4 6 8 9 10 8 7 7 6 6 8
16 15 14 13 13 12 12 12 11 11 11 11 11 10 9 9 9 9 9 9 9 9 9 9 8 7 6 5 5 6 6 6 6 6 7 7 7 8 8 6 7 8 8 9 9 9 9 9 10 11 12 12 12 13 15 17 18 17 14 12 11 11 11 11 5 3 5 4 4 4 1 1 0 1 3 7 8 9 10 7 5 6 6 7 7
15 13 14 14 13 12 11 11 11 10 10 9 10 10 10 10 10 10 10 10 10 10 9 9 9 8 7 7 6 6 6 6 6 7 7 7 7 7 6 5 7 9 9 10 9 9 9 10 10 12 13 14 15 17 18 20 19 15 12 10 9 9 9 8 3 4 5 4 5 5 4 2 2 1 3 6 8 9 8 5 6 7 7 8 8
16 14 14 14 13 13 12 12 12 11 10 10 11 11 11 11 11 11 11 11 11 11 10 10 10 9 8 8 7 6 6 6 7 7 8 7 8 7 5 4 6 8 9 9 9 9 10 11 12 13 14 15 17 18 19 19 17 15 12 9 8 7 6 6 4 5 5 5 5 5 5 4 2 3 3 5 6 7 6 5 7 9 9 9 9
16 15 14 14 13 13 13 13 13 12 11 11 11 12 13 13 13 13 12 12 12 11 11 11 11 10 9 9 9 8 7 7 7 7 8 8 8 8 5 4 7 8 9 9 9 10 11 12 12 13 16 17 18 19 18 17 14 12 10 8 6 4 3 4 4 5 6 7 6 6 7 6 4 3 4 5 4 4 5 5 7 9 10 10 10
17 17 16 15 15 14 14 13 13 13 11 11 11 12 13 13 13 14 14 13 13 12 12 12 12 11 9 9 9 9 9 8 7 7 8 9 9 9 7 6 8 10 10 10 10 11 12 12 13 15 17 17 18 18 17 15 11 8 6 5 4 2 3 4 5 5 6 7 7 6 6 6 7 6 5 6 5 5 6 6 7 8 9 10 10
19 19 18 17 16 16 16 15 13 13 12 11 10 10 11 11 12 13 14 13 13 13 13 13 13 11 10 9 9 9 9 8 8 8 9 11 11 10 9 8 9 10 11 11 11 11 11 12 14 15 16 16 15 15 15 14 9 5 3 2 2 2 3 5 6 6 6 7 6 4 4 5 7 7 7 7 7 8 9 9 9 9 9 9 10
21 19 19 19 18 17 17 16 14 13 12 10 10 10 9 10 10 11 12 13 14 14 14 13 14 13 11 10 9 9 9 8 9 9 10 12 12 10 10 9 9 10 10 11 12 11 11 12 13 13 13 14 14 14 13 11 7 5 2 3 2 3 4 5 6 7 7 7 7 5 5 6 7 8 9 8 8 10 11 11 11 11 11 11 11
21 19 18 20 20 18 17 17 16 12 11 11 11 11 10 10 10 11 12 13 15 15 14 14 14 14 13 11 9 9 9 9 9 10 11 12 12 11 10 10 10 10 11 12 12 10 10 10 10 11 12 12 13 13 12 10 7 5 1 2 3 4 5 5 6 7 7 5 3 3 5 6 8 8 9 9 10 11 12 13 13 12 12 13 13
21 21 19 19 20 19 18 17 17 13 11 12 13 13 12 11 10 12 14 14 15 15 15 15 14 14 13 11 10 10 10 10 9 9 10 10 11 11 10 10 10 10 11 11 10 9 9 9 10 10 11 11 11 12 12 10 7 4 1 2 3 5 5 4 5 6 5 3 2 2 3 5 8 8 7 8 10 12 13 13 14 14 14 14 13
21 22 20 19 19 19 18 17 16 14 12 12 14 14 14 14 12 14 16 15 16 17 16 15 14 14 12 10 10 11 10 9 9 9 9 10 11 11 11 10 9 9 9 8 7 7 7 7 8 9 10 10 10 11 12 11 9 6 2 0 2 4 5 5 5 5 5 5 4 3 3 4 7 8 7 7 8 11 13 14 13 14 15 15 15
22 21 19 18 17 17 17 16 16 15 14 12 13 15 16 16 15 15 16 16 15 16 16 14 14 14 12 11 11 11 11 10 9 9 10 11 11 11 10 9 8 7 6 6 5 5 5 5 7 8 9 10 10 11 11 12 11 9 6 3 1 3 5 6 6 5 4 6 8 7 6 6 8 9 10 10 9 9 11 13 13 14 15 16 15
23 21 19 18 18 18 18 17 16 17 16 14 14 16 16 17 17 16 15 15 14 14 13 12 13 13 13 12 12 12 12 11 10 11 11 11 11 10 9 8 6 5 5 4 4 3 4 5 6 8 10 10 10 10 11 12 11 9 8 6 3 3 5 5 5 6 5 6 10 10 9 10 10 9 8 9 10 10 10 13 14 14 16 16 15
25 23 21 21 20 19 19 19 18 18 18 17 16 16 16 17 17 16 16 14 14 13 13 13 13 14 14 13 13 13 13 12 11 12 12 11 9 8 7 6 4 4 4 3 2 2 4 6 7 9 10 11 11 11 11 12 11 10 9 8 6 5 5 4 6 8 9 9 11 12 12 12 10 8 7 6 7 9 9 11 14 15 15 16 17
27 26 25 24 23 21 20 20 20 20 19 20 19 17 16 17 17 17 16 15 14 15 15 15 15 16 16 14 14 14 13 13 12 11 11 10 8 6 5 4 4 5 4 2 1 3 5 6 8 9 10 11 12 12 12 12 12 11 9 8 7 7 6 5 6 9 11 11 11 12 12 12 10 8 8 6 4 5 6 8 13 15 14 14 17
28 29 29 27 25 25 23 22 22 22 21 21 21 19 17 17 18 18 17 16 15 16 16 16 17 18 17 16 17 17 15 14 12 11 10 9 8 6 4 4 5 5 4 2 2 4 5 7 9 9 11 12 12 12 12 12 13 12 11 10 9 8 7 6 7 8 9 9 10 11 11 11 11 11 12 11 8 6 6 6 9 10 10 11 13
28 29 29 29 28 28 27 25 25 23 23 23 22 21 19 18 19 18 17 17 16 17 17 17 17 18 17 17 18 18 16 14 12 10 9 7 7 6 5 5 5 5 5 4 4 5 6 7 9 10 12 13 13 13 13 12 12 13 13 12 10 9 9 8 8 8 8 8 8 11 11 11 13 13 13 14 12 9 8 6 5 6 7 8 9
25 28 29 30 30 30 28 27 26 25 24 25 24 23 21 20 20 18 17 17 17 17 18 18 17 16 16 16 17 17 16 13 11 9 7 7 7 7 5 5 5 6 6 6 6 6 7 9 11 12 14 14 15 16 16 14 14 14 14 14 13 11 10 9 9 9 8 7 8 10 11 12 14 15 14 13 12 12 12 10 8 7 7 7 8
Wind_Direction
124 128 135 136 135 135 135 134 135 138 138 138 137 137 139 141 143 143 143 143 143 139 135 132 130 129 124 118 110 104 103 104 101 95 89 87 88 91 93 90 84 80 75 73 69 67 71 77 82 86 95 107 109 107 87 53 43 35 28 26 23 25 29 38 55 62 62 53 50 56 64 73 91 101 108 112 112 112 114 111 107 110 106 113 130
130 131 134 136 138 140 138 136 139 140 140 140 140 141 141 142 142 141 141 141 140 136 133 131 130 128 123 116 107 101 102 101 96 91 87 84 85 88 89 85 81 79 74 70 68 66 68 73 78 81 86 94 102 104 89 34 14 19 23 23 24 29 29 37 54 60 62 61 56 59 67 73 82 93 100 104 105 103 102 99 100 108 108 112 121
139 136 136 141 142 142 138 139 142 143 143 142 144 143 142 142 141 139 139 139 138 135 133 131 130 127 122 112 103 100 99 97 93 89 85 81 82 85 83 77 74 73 71 67 67 64 66 68 69 72 76 80 86 83 62 22 9 21 32 27 27 36 34 40 54 55 54 64 64 61 68 76 79 84 89 94 98 98 95 94 99 104 103 105 113
144 142 141 143 142 141 139 140 144 146 145 145 146 145 142 141 139 139 139 138 137 135 133 132 131 126 118 108 100 98 97 94 90 84 80 79 79 78 75 72 68 66 64 61 60 60 62 65 64 63 65 69 70 67 59 46 34 36 46 43 40 44 41 42 50 53 53 63 71 66 67 76 81 81 81 84 89 94 95 96 97 97 96 97 102
148 149 147 145 143 143 141 141 144 146 147 147 149 146 143 141 139 140 140 139 139 136 134 135 132 124 114 104 98 96 94 90 85 80 76 74 73 68 66 67 66 64 60 56 53 54 58 62 64 62 60 62 65 64 61 57 50 49 57 58 56 54 47 45 49 56 56 55 64 69 68 74 81 81 80 82 86 92 97 99 97 93 93 93 94
149 151 150 148 147 147 145 143 145 146 148 149 150 149 145 141 140 141 142 143 141 137 137 136 131 122 113 104 98 95 90 85 81 77 73 70 67 62 61 62 62 65 62 56 53 55 57 60 64 65 60 60 65 71 74 67 57 59 67 69 64 60 53 51 52 58 62 58 60 67 69 72 78 81 82 84 87 90 95 99 98 97 96 93 92
148 151 149 149 151 151 147 147 148 147 149 151 152 151 148 142 141 144 146 147 143 140 140 137 131 122 114 105 98 94 88 84 80 75 70 65 63 58 56 55 55 59 57 51 51 54 56 60 65 65 60 61 67 73 86 85 72 65 64 64 60 59 59 58 56 57 61 65 66 70 72 71 74 79 84 87 88 88 92 99 100 101 100 96 93
148 149 146 148 152 152 149 149 150 149 150 153 155 154 149 144 144 147 149 150 147 144 142 138 132 125 115 105 98 94 90 84 79 73 68 63 60 54 46 43 45 46 42 40 42 48 51 55 63 65 59 60 68 71 77 83 80 72 61 55 53 53 57 59 60 60 61 67 70 71 71 70 73 75 80 87 90 92 94 99 102 101 103 102 99
147 148 145 147 150 150 148 148 150 150 152 154 156 156 151 148 147 149 151 152 151 148 145 142 137 130 119 105 100 95 88 80 74 69 64 59 54 46 37 33 34 35 33 35 38 49 57 54 61 66 62 59 67 71 68 68 73 73 66 56 52 50 50 52 57 59 59 63 65 65 64 68 77 76 78 85 90 96 98 101 104 105 106 107 107
145 146 145 146 148 147 146 147 149 150 153 155 157 158 153 150 148 150 153 154 154 153 151 149 144 137 121 108 105 94 84 75 69 64 59 53 44 36 33 32 32 32 31 36 40 56 68 63 64 66 61 56 58 65 65 63 63 66 66 58 54 49 48 47 45 47 47 55 61 60 57 62 80 84 78 82 88 92 98 105 109 112 114 111 112
144 144 144 145 146 145 147 148 149 150 152 154 157 158 155 151 149 150 153 155 156 156 157 155 150 138 122 114 112 94 82 75 69 64 56 48 41 35 35 34 35 34 34 43 50 62 73 70 66 63 57 51 51 57 61 60 55 60 65 56 50 46 44 42 36 36 42 53 62 63 55 55 81 91 83 81 87 90 94 107 118 126 123 116 120
143 143 143 144 144 144 147 149 149 149 151 155 157 156 154 152 149 151 151 154 156 158 159 156 151 138 124 123 119 100 88 83 77 67 55 52 47 41 38 40 45 42 42 57 65 67 76 76 68 62 56 51 55 59 59 61 57 55 57 49 39 37 36 38 38 36 43 49 55 60 53 49 69 93 96 89 87 94 98 103 122 133 120 120 135
143 142 143 144 144 144 146 147 150 151 154 157 158 157 154 153 152 152 152 155 157 158 159 155 152 140 130 134 132 117 105 97 87 72 62 59 51 47 49 53 56 53 55 65 70 71 77 76 69 67 62 60 63 63 62 65 64 57 53 46 35 35 33 34 40 38 39 38 40 46 44 42 48 75 100 103 97 99 103 106 110 119 116 126 145
143 142 144 144 143 143 145 146 149 152 155 158 158 157 156 157 158 158 158 159 159 159 159 157 154 144 139 143 144 132 117 105 86 73 67 60 58 60 63 62 58 56 61 66 67 72 77 72 70 73 70 69 69 66 64 64 63 60 57 49 41 44 39 33 39 39 35 32 32 34 35 36 37 50 77 98 110 108 103 112 118 115 121 135 150
145 144 147 146 145 144 146 146 150 152 153 155 156 157 159 162 164 165 165 163 162 162 162 160 155 147 143 149 151 138 122 104 81 72 69 67 67 68 69 65 58 56 62 68 68 70 76 73 74 79 76 74 70 63 61 60 60 60 59 51 44 47 44 37 37 34 32 32 29 26 26 27 31 39 49 72 101 111 107 116 122 125 129 141 155
149 150 149 148 147 146 148 150 152 153 152 153 155 157 161 165 167 168 168 167 166 165 164 159 154 149 148 153 151 136 119 97 80 75 74 75 75 72 69 66 60 55 60 66 68 70 74 79 82 83 79 73 66 59 56 55 56 56 57 52 46 46 45 38 32 27 27 32 33 27 20 20 27 35 39 49 70 104 116 124 124 131 133 139 160
152 154 153 152 151 150 152 153 155 155 155 155 158 160 163 166 167 168 167 167 166 164 162 158 156 153 154 152 143 130 109 91 84 80 77 79 78 74 68 66 64 60 61 65 69 71 74 78 82 81 74 67 59 52 47 47 46 44 44 42 39 39 38 37 37 31 23 26 38 37 27 25 31 37 37 40 43 55 91 114 122 142 148 140 160
153 155 155 156 155 156 155 156 158 159 159 158 161 164 166 167 165 166 165 163 164 162 162 160 159 155 152 143 132 123 99 85 85 80 77 76 71 67 64 65 71 70 65 68 71 70 72 74 73 68 60 53 47 40 35 37 37 32 28 26 24 22 19 23 33 34 25 20 32 40 38 40 40 41 39 38 39 32 35 61 77 148 175 159 169
155 155 157 161 161 161 160 160 160 160 161 160 164 167 167 166 163 164 162 162 162 163 164 161 158 152 146 137 124 113 101 93 88 84 78 72 65 61 65 67 75 81 75 72 74 71 66 64 58 50 44 37 31 29 25 26 26 20 13 10 8 7 6 7 9 14 20 13 18 36 40 44 43 45 47 42 44 37 29 35 37 5 254 182 189
156 157 160 165 167 167 164 163 162 161 162 162 165 166 166 163 161 162 161 160 161 163 163 160 156 149 142 130 114 106 106 105 97 90 81 71 61 54 60 67 75 86 84 76 73 73 66 59 52 40 33 24 18 19 17 15 16 8 360 358 359 1 1 1 359 355 1 358 356 20 36 44 43 44 50 46 47 43 35 35 38 32 344 239 213
156 158 162 166 168 168 168 166 165 165 165 166 167 165 164 162 161 163 161 160 162 164 161 159 154 146 140 126 111 110 105 99 94 85 79 67 57 53 52 56 66 78 86 81 67 67 63 57 52 39 29 21 14 14 10 6 6 2 354 354 356 354 353 354 356 349 344 343 343 359 21 40 45 43 43 36 39 42 38 42 45 47 38 334 273
159 160 163 167 168 167 168 169 168 169 168 169 169 167 166 165 166 165 163 162 164 165 161 159 153 144 138 125 114 108 97 98 99 89 80 59 58 61 49 44 55 66 73 73 56 53 53 49 46 38 28 17 10 8 4 0 359 358 351 348 350 348 346 342 343 342 332 332 334 341 0 21 37 44 45 34 27 27 25 35 51 57 56 46 355
164 163 165 167 169 169 169 171 171 172 171 171 171 170 169 169 169 166 165 165 167 166 162 158 148 142 131 121 117 106 104 113 115 104 65 52 56 53 45 43 50 63 72 67 48 40 45 47 45 40 28 13 6 2 356 355 355 352 346 344 347 348 345 340 337 338 331 325 324 326 337 351 7 17 35 47 29 3 335 338 18 59 68 67 67
165 166 166 167 169 170 170 172 174 174 173 173 172 171 170 170 170 169 168 168 170 167 162 156 146 141 130 122 120 116 128 138 133 107 64 54 55 48 47 48 51 60 75 77 64 55 39 35 35 27 28 17 4 357 349 350 349 344 343 345 348 348 344 339 338 342 338 327 318 314 305 298 310 320 329 15 24 353 315 294 306 353 63 81 91
168 169 169 167 168 168 171 172 172 173 173 172 172 171 170 169 170 170 171 171 170 167 162 155 148 147 145 139 142 148 156 163 156 100 58 46 49 48 50 43 45 49 58 67 61 62 50 32 24 4 11 17 2 355 348 344 341 338 340 344 347 343 337 331 333 341 338 329 319 309 297 284 277 278 296 308 288 318 307 284 281 298 324 47 105
174 174 172 171 169 169 173 173 172 171 171 171 171 172 170 168 170 171 172 171 170 167 162 155 154 162 173 178 178 184 185 200 214 86 46 42 43 51 66 41 39 43 49 54 39 43 50 32 20 2 356 6 358 348 341 335 333 334 335 336 337 334 331 328 326 334 334 325 317 308 295 280 268 266 275 285 276 251 267 275 273 279 289 301 309
177 177 176 175 174 175 175 174 175 174 173 172 172 172 170 169 171 172 171 173 172 170 169 165 170 186 206 216 216 221 214 221 248 66 46 36 22 23 48 45 47 37 27 42 31 21 33 20 16 8 351 352 350 341 333 326 324 327 328 326 326 327 326 322 319 321 322 317 309 301 289 272 260 257 257 262 270 255 247 258 262 263 262 272 284
180 181 180 179 179 180 178 176 179 180 179 176 175 173 172 175 175 175 176 177 179 180 184 180 190 217 229 230 218 231 218 207 228 74 45 348 359 358 347 355 42 21 348 17 33 359 0 357 2 357 335 339 345 343 335 326 322 321 325 325 323 323 317 311 308 307 314 316 302 291 285 268 250 242 242 246 257 256 248 255 255 253 243 241 256
184 184 182 180 181 182 180 180 182 183 183 181 180 177 178 182 183 185 185 188 190 189 198 199 210 227 234 240 230 269 287 345 311 69 62 320 331 320 299 313 24 356 322 322 313 319 319 325 348 337 327 338 345 345 337 330 325 321 327 327 319 313 309 306 301 300 316 321 302 290 283 261 240 233 232 236 244 249 247 250 250 247 235 223 224
186 187 185 182 181 182 182 182 184 184 184 183 185 184 186 189 190 195 196 201 205 204 212 216 225 231 231 261 279 289 289 285 289 294 319 282 287 288 287 281 254 294 306 302 299 307 312 319 333 332 333 340 336 333 336 335 326 320 323 319 313 311 308 303 295 297 319 322 314 312 296 252 229 227 231 231 229 234 240 241 242 241 233 217 213
188 188 186 186 182 183 185 184 183 183 182 181 186 188 190 194 198 203 209 214 218 221 227 231 237 232 220 277 289 294 294 263 267 283 291 273 264 271 282 282 265 284 303 304 305 309 312 316 325 329 331 329 325 329 339 338 326 318 319 318 319 321 321 308 292 297 318 326 321 324 322 242 216 218 222 224 222 225 231 234 237 239 238 228 215
189 186 185 187 185 185 187 186 184 182 182 181 185 190 192 200 204 206 215 222 227 231 239 246 249 236 227 249 267 284 295 286 274 273 280 278 271 269 275 281 279 286 295 296 303 307 302 307 319 324 328 328 329 335 340 336 327 322 321 322 322 325 336 325 296 298 318 332 326 328 340 287 221 224 222 219 221 224 226 231 235 236 235 234 225
189 188 188 188 188 189 188 189 187 183 183 183 187 194 198 206 209 211 218 225 233 237 243 251 255 245 232 229 244 265 274 275 272 263 268 274 276 275 275 286 293 292 289 287 298 302 299 306 318 321 326 334 335 336 337 331 328 326 322 321 316 319 335 329 302 290 301 312 310 316 348 351 286 245 232 222 224 226 227 229 232 234 233 231 230
193 192 192 192 192 192 190 189 189 186 187 187 190 199 205 211 217 218 220 225 231 233 237 246 253 252 244 231 230 247 255 253 255 258 266 272 276 276 277 289 293 291 290 290 295 295 297 306 315 317 322 331 332 326 325 324 326 326 320 316 310 312 323 325 314 282 273 282 285 289 21 26 7 253 230 226 228 229 230 230 237 245 248 249 240
199 195 193 196 196 194 191 189 190 191 194 193 194 200 208 214 219 219 218 222 227 228 234 241 246 247 247 243 235 238 247 251 254 261 268 272 277 277 283 291 284 283 288 290 293 293 298 307 313 316 320 326 319 313 319 323 328 328 322 315 309 310 315 321 323 249 250 262 267 282 296 139 125 273 235 227 228 232 233 232 244 251 252 258 254
204 199 192 196 197 194 190 188 192 198 203 202 202 205 211 217 220 220 218 220 226 228 231 238 243 242 239 242 243 242 247 256 263 268 269 271 277 282 290 294 281 281 284 287 291 295 299 305 312 316 320 320 311 313 320 324 328 328 323 316 306 309 309 306 288 206 226 242 247 265 279 247 149 150 251 237 231 235 238 231 230 232 230 239 245
205 204 196 196 196 194 191 190 195 205 211 211 213 215 218 223 226 225 223 221 226 231 232 238 242 241 237 238 243 246 250 257 266 272 273 273 274 280 294 290 279 280 283 288 292 295 300 304 311 317 319 315 311 315 319 320 322 320 320 317 306 308 297 279 250 206 214 233 243 251 263 270 199 180 242 259 244 235 236 235 233 232 229 233 236
203 204 202 202 202 200 197 194 198 207 215 218 221 224 226 230 232 231 229 225 227 232 236 239 241 242 238 237 243 250 259 262 270 278 277 275 269 274 293 288 279 281 284 290 294 296 300 303 309 315 316 314 315 317 317 318 316 310 313 311 305 305 270 243 225 206 210 221 235 244 249 266 273 245 250 270 265 246 240 240 240 239 236 235 235
204 205 206 207 207 207 205 201 201 208 217 221 223 228 231 235 237 235 233 231 231 234 238 242 244 245 240 239 248 257 264 266 270 278 276 275 273 278 290 282 279 286 290 294 298 301 305 309 312 313 315 319 322 323 322 320 313 302 298 297 298 277 216 214 207 205 216 223 228 238 246 257 273 280 277 270 267 265 260 253 251 253 249 243 239
208 207 209 210 210 211 213 210 207 211 219 223 226 230 234 238 239 238 234 233 236 237 239 242 245 249 247 246 255 262 265 265 266 271 273 274 277 283 286 281 282 289 297 302 304 309 314 315 314 315 321 326 326 326 326 323 317 309 289 257 252 197 190 200 202 204 219 240 248 252 248 243 252 265 268 265 267 272 270 266 265 267 265 259 252
212 209 208 210 214 214 217 217 214 216 221 227 234 238 240 243 243 240 234 231 235 237 239 242 246 249 250 250 255 261 263 263 264 264 265 270 276 285 287 285 288 292 301 308 310 314 316 315 317 322 327 328 327 329 329 327 327 332 303 216 204 188 189 193 199 206 217 243 265 275 265 254 248 246 254 260 264 267 269 271 272 272 273 272 267
214 214 210 211 216 218 219 221 221 221 225 231 238 244 246 245 243 234 225 225 230 234 236 240 244 246 247 249 249 251 254 257 261 260 260 267 275 282 282 283 289 296 304 309 313 317 319 324 329 329 329 330 332 334 334 335 343 353 329 209 195 194 199 191 200 222 229 226 241 270 276 275 264 246 245 256 260 261 265 269 272 273 273 273 272
217 219 217 214 216 220 219 219 223 227 231 235 239 245 247 245 239 228 221 223 227 231 233 236 241 243 244 246 246 248 251 254 258 261 262 268 273 277 278 281 287 295 303 310 322 331 333 339 336 330 332 337 338 338 340 345 356 8 5 196 186 200 216 206 204 231 244 228 200 224 247 280 283 268 245 239 248 258 264 267 270 274 275 274 273
219 222 223 219 218 220 220 219 225 233 237 238 241 244 245 244 239 228 224 223 225 228 232 234 238 243 243 241 245 250 254 256 257 259 265 271 273 273 275 280 288 297 306 316 331 340 342 340 332 332 340 346 348 348 348 353 359 5 8 345 193 214 229 215 203 219 247 275 293 280 264 280 283 279 266 246 242 251 263 269 271 274 275 276 275
223 225 225 223 219 219 220 222 228 236 240 239 241 244 245 245 243 238 233 231 228 228 232 235 238 242 243 241 244 248 250 252 253 258 268 276 273 272 275 280 289 299 304 314 328 340 349 343 332 339 350 355 359 357 355 1 4 1 358 342 257 230 234 223 216 227 240 267 283 291 294 283 278 278 271 265 259 252 259 269 271 275 275 275 274
229 228 227 225 222 222 224 228 231 235 240 241 241 244 247 248 248 250 250 244 238 234 234 237 237 241 243 243 247 249 249 251 255 263 270 275 273 271 276 280 283 290 294 307 329 342 359 4 353 350 352 357 3 2 359 6 8 3 358 346 323 280 261 248 239 247 246 247 264 279 281 274 284 289 266 259 275 271 263 265 267 269 272 274 274
232 231 230 229 228 229 230 233 237 237 241 243 244 246 248 250 251 253 253 246 237 235 236 237 239 244 245 245 249 251 252 255 259 265 266 266 269 269 267 268 269 272 279 290 319 341 4 13 5 353 347 350 356 0 1 5 7 4 359 350 340 325 299 270 250 252 258 256 262 274 278 280 292 287 250 240 273 279 272 267 266 267 272 277 279
235 233 232 233 233 235 235 237 241 242 242 244 247 250 250 253 254 253 252 246 234 230 234 237 240 245 245 244 247 251 254 257 260 261 260 260 266 269 258 255 255 255 264 273 304 335 356 360 356 350 344 345 349 353 357 360 0 360 356 350 342 333 328 304 268 260 266 269 269 270 277 289 298 285 269 271 273 274 282 274 269 272 274 276 278
236 236 235 236 236 236 237 238 241 245 246 245 249 252 252 253 254 253 252 247 235 230 234 236 239 241 242 241 245 250 252 254 257 255 253 255 262 266 257 250 249 250 257 266 294 324 341 341 341 341 338 341 344 345 351 353 351 352 351 347 344 336 329 315 296 286 278 276 274 271 275 288 297 298 301 311 318 311 307 287 271 274 275 272 274
233 235 236 236 237 236 236 237 240 246 248 248 250 252 252 253 255 254 250 244 236 231 234 236 237 238 239 242 246 250 250 251 251 248 246 249 255 259 257 250 247 247 252 261 282 311 326 327 329 330 330 334 337 338 343 346 343 344 344 342 342 339 332 322 313 305 289 277 269 264 267 277 288 295 299 306 315 323 327 318 285 272 269 268 268
230 231 232 233 235 235 234 235 238 242 247 249 248 249 252 252 256 256 247 241 236 232 234 236 238 239 241 246 249 249 248 247 244 239 237 242 248 252 250 243 244 251 262 277 292 305 314 318 319 322 327 331 334 336 339 342 340 338 339 338 336 333 332 329 321 316 302 285 272 262 262 268 276 286 294 301 315 327 328 326 315 298 287 276 269
Height
3178 3180 3181 3183 3183 3184 3186 3188 3188 3189 3191 3193 3194 3196 3197 3198 3200 3201 3203 3204 3206 3207 3209 3210 3211 3212 3213 3213 3214 3214 3215 3215 3215 3216 3216 3216 3216 3217 3217 3218 3217 3217 3217 3216 3216 3216 3216 3217 3217 3216 3216 3216 3216 3216 3216 3216 3216 3215 3215 3215 3214 3214 3213 3213 3212 3212 3211 3210 3209 3208 3207 3206 3207 3207 3208 3209 3209 3210 3210 3211 3211 3211 3212 3212 3212
3179 3181 3182 3183 3184 3185 3187 3188 3189 3191 3193 3194 3196 3197 3198 3199 3201 3202 3204 3206 3207 3209 3210 3211 3212 3213 3214 3214 3215 3215 3215 3216 3216 3217 3217 3217 3217 3218 3218 3218 3218 3218 3217 3217 3217 3217 3217 3217 3217 3217 3217 3217 3217 3217 3216 3216 3216 3216 3216 3215 3215 3214 3214 3213 3213 3213 3212 3211 3210 3210 3208 3208 3208 3209 3210 3210 3210 3211 3211 3211 3212 3212 3212 3212 3212
3180 3181 3183 3185 3186 3186 3188 3189 3191 3192 3194 3195 3197 3198 3199 3200 3202 3203 3205 3207 3208 3209 3210 3211 3212 3213 3214 3215 3215 3216 3216 3217 3217 3218 3218 3218 3218 3219 3219 3219 3219 3218 3218 3218 3218 3218 3218 3218 3218 3218 3218 3218 3218 3217 3217 3217 3216 3216 3216 3216 3215 3215 3214 3214 3214 3213 3213 3212 3211 3211 3210 3209 3210 3210 3211 3211 3211 3211 3212 3212 3212 3212 3212 3213 3213
3181 3182 3184 3185 3186 3187 3189 3191 3192 3193 3195 3196 3198 3199 3200 3202 3203 3204 3206 3207 3209 3210 3211 3212 3213 3214 3215 3216 3216 3216 3217 3218 3218 3219 3219 3219 3219 3220 3220 3220 3220 3219 3219 3219 3218 3218 3218 3218 3218 3218 3218 3218 3218 3218 3218 3217 3217 3216 3216 3216 3216 3215 3215 3215 3215 3214 3214 3213 3212 3212 3212 3211 3211 3211 3212 3212 3212 3212 3212 3213 3214 3214 3213 3214 3214
3181 3183 3184 3186 3186 3188 3190 3191 3193 3194 3196 3197 3199 3200 3201 3202 3204 3205 3207 3208 3209 3211 3212 3213 3214 3215 3216 3216 3217 3217 3218 3219 3219 3220 3220 3220 3220 3221 3221 3221 3221 3220 3220 3220 3219 3219 3218 3219 3219 3219 3219 3219 3219 3218 3218 3218 3217 3217 3217 3216 3216 3216 3216 3216 3215 3215 3215 3214 3213 3213 3213 3212 3211 3212 3213 3213 3213 3213 3213 3214 3215 3215 3215 3215 3215
3182 3184 3185 3186 3187 3189 3191 3192 3194 3195 3197 3199 3200 3201 3202 3203 3205 3206 3207 3209 3210 3211 3213 3214 3215 3216 3217 3217 3218 3218 3219 3220 3220 3220 3221 3221 3221 3221 3221 3221 3221 3221 3221 3220 3220 3219 3219 3219 3219 3219 3219 3219 3219 3219 3218 3218 3218 3218 3217 3217 3217 3216 3216 3216 3216 3215 3215 3215 3214 3214 3213 3213 3213 3213 3214 3214 3214 3215 3215 3215 3215 3216 3216 3216 3216
3184 3186 3187 3188 3189 3190 3191 3193 3194 3196 3198 3200 3202 3203 3204 3204 3205 3207 3208 3210 3211 3212 3214 3215 3215 3217 3217 3218 3219 3219 3220 3221 3221 3221 3222 3222 3222 3222 3221 3221 3221 3221 3221 3221 3220 3220 3220 3220 3220 3220 3220 3219 3219 3219 3218 3218 3218 3218 3218 3217 3217 3217 3217 3217 3216 3216 3216 3215 3215 3214 3214 3214 3214 3214 3214 3215 3215 3216 3216 3216 3217 3216 3216 3217 3217
3186 3188 3189 3190 3191 3192 3193 3194 3195 3197 3199 3201 3203 3204 3205 3205 3206 3207 3209 3211 3212 3213 3214 3215 3216 3217 3218 3219 3219 3220 3221 3221 3221 3222 3223 3223 3223 3222 3222 3222 3222 3222 3222 3221 3221 3221 3221 3221 3221 3221 3220 3220 3220 3220 3219 3219 3218 3218 3218 3218 3217 3217 3217 3217 3217 3217 3216 3216 3216 3215 3214 3214 3215 3215 3215 3215 3216 3216 3217 3217 3217 3217 3217 3217 3218
3187 3188 3190 3191 3192 3194 3194 3195 3197 3198 3200 3202 3204 3205 3205 3205 3206 3208 3210 3211 3213 3214 3215 3216 3217 3218 3219 3220 3220 3221 3222 3222 3223 3223 3224 3224 3224 3223 3223 3223 3223 3223 3222 3222 3222 3222 3222 3222 3222 3222 3221 3221 3221 3221 3220 3220 3219 3219 3219 3219 3218 3218 3217 3217 3217 3217 3217 3217 3216 3215 3214 3214 3215 3216 3216 3216 3217 3217 3218 3218 3218 3218 3218 3218 3218
3188 3189 3191 3192 3193 3194 3196 3197 3198 3200 3202 3203 3205 3206 3206 3206 3207 3209 3211 3212 3213 3214 3215 3216 3218 3219 3220 3221 3221 3222 3223 3223 3224 3224 3225 3225 3224 3224 3224 3224 3224 3223 3223 3222 3222 3222 3222 3222 3222 3223 3222 3222 3222 3222 3222 3221 3221 3220 3220 3219 3219 3219 3218 3218 3218 3218 3217 3217 3217 3216 3215 3215 3216 3216 3217 3217 3217 3218 3218 3219 3218 3219 3219 3219 3219
3190 3191 3192 3193 3194 3195 3196 3198 3200 3201 3203 3204 3205 3206 3206 3207 3208 3210 3211 3213 3214 3215 3216 3217 3218 3220 3221 3222 3222 3223 3224 3224 3225 3225 3226 3226 3225 3225 3225 3225 3224 3224 3224 3223 3223 3223 3223 3223 3223 3223 3223 3223 3223 3223 3223 3222 3222 3221 3221 3220 3220 3220 3219 3219 3218 3218 3218 3217 3217 3217 3216 3216 3216 3216 3217 3218 3218 3218 3219 3219 3219 3219 3219 3219 3219
3190 3192 3193 3194 3195 3196 3198 3199 3201 3202 3203 3204 3206 3207 3207 3208 3209 3211 3212 3213 3215 3216 3217 3218 3219 3221 3222 3223 3223 3223 3224 3225 3225 3226 3226 3226 3226 3226 3225 3225 3225 3224 3224 3224 3224 3224 3224 3224 3224 3224 3224 3224 3224 3224 3223 3223 3222 3222 3222 3221 3221 3221 3220 3220 3220 3219 3219 3218 3218 3218 3217 3217 3217 3217 3217 3218 3218 3218 3219 3220 3220 3220 3220 3220 3220
3191 3192 3193 3195 3196 3197 3199 3200 3201 3202 3204 3205 3206 3207 3208 3209 3210 3212 3213 3214 3215 3216 3218 3219 3220 3222 3223 3223 3224 3224 3225 3226 3226 3227 3227 3227 3226 3226 3226 3226 3225 3225 3225 3225 3224 3224 3225 3225 3225 3225 3225 3224 3224 3224 3224 3223 3223 3222 3222 3222 3222 3222 3221 3221 3221 3221 3220 3219 3219 3218 3218 3218 3218 3217 3218 3218 3219 3219 3219 3219 3220 3220 3220 3220 3220
3191 3192 3194 3195 3197 3198 3199 3200 3201 3202 3204 3205 3206 3207 3208 3210 3211 3213 3214 3215 3216 3217 3219 3220 3221 3223 3224 3224 3224 3225 3226 3226 3227 3227 3227 3227 3227 3227 3227 3227 3226 3226 3225 3225 3225 3225 3225 3225 3225 3225 3225 3225 3225 3225 3224 3224 3224 3223 3223 3223 3222 3222 3222 3222 3222 3221 3221 3220 3220 3219 3219 3219 3219 3219 3218 3218 3219 3220 3219 3219 3220 3221 3221 3221 3221
3193 3194 3194 3196 3197 3198 3199 3200 3202 3203 3204 3205 3206 3208 3209 3211 3212 3214 3215 3216 3217 3218 3220 3221 3222 3223 3224 3225 3225 3226 3226 3227 3227 3228 3228 3228 3228 3228 3228 3227 3227 3227 3226 3226 3225 3225 3225 3226 3226 3226 3226 3225 3225 3225 3225 3225 3224 3224 3224 3223 3223 3223 3223 3223 3222 3222 3221 3221 3221 3220 3220 3220 3220 3220 3219 3219 3220 3220 3220 3220 3220 3221 3221 3221 3221
3195 3196 3196 3197 3198 3199 3200 3201 3202 3203 3204 3206 3207 3209 3210 3212 3214 3215 3216 3217 3218 3219 3221 3222 3223 3224 3225 3225 3226 3226 3227 3227 3228 3228 3228 3229 3229 3229 3228 3228 3228 3227 3227 3226 3226 3226 3226 3226 3227 3227 3227 3226 3226 3226 3226 3225 3225 3225 3224 3224 3224 3224 3224 3223 3223 3222 3222 3222 3221 3221 3221 3221 3221 3221 3221 3220 3221 3220 3220 3220 3221 3221 3222 3222 3222
3195 3197 3197 3198 3199 3200 3201 3202 3203 3204 3206 3207 3209 3210 3212 3213 3215 3216 3217 3218 3219 3220 3221 3223 3224 3225 3225 3226 3227 3227 3227 3228 3228 3229 3229 3229 3229 3229 3229 3229 3229 3228 3228 3227 3227 3227 3227 3227 3227 3228 3227 3227 3227 3227 3227 3226 3226 3226 3225 3225 3225 3224 3224 3224 3224 3223 3223 3222 3222 3221 3221 3221 3221 3221 3221 3221 3221 3221 3221 3221 3221 3221 3222 3222 3223
3196 3197 3198 3199 3200 3201 3202 3203 3204 3206 3207 3209 3210 3211 3213 3214 3215 3216 3217 3219 3220 3221 3222 3223 3224 3225 3226 3227 3227 3227 3227 3228 3229 3229 3229 3229 3229 3229 3229 3229 3229 3229 3228 3228 3228 3227 3227 3228 3228 3228 3228 3228 3228 3228 3228 3227 3227 3226 3226 3226 3226 3225 3224 3224 3224 3223 3223 3222 3222 3222 3221 3221 3222 3222 3222 3222 3222 3222 3222 3222 3222 3222 3222 3223 3223
3196 3197 3199 3200 3201 3202 3203 3204 3205 3207 3208 3209 3211 3212 3213 3214 3215 3217 3218 3219 3220 3222 3223 3224 3225 3226 3226 3227 3227 3228 3228 3228 3229 3229 3229 3229 3229 3229 3229 3229 3230 3229 3229 3229 3228 3228 3228 3228 3228 3228 3228 3228 3228 3228 3228 3227 3227 3226 3226 3226 3225 3225 3224 3223 3223 3223 3223 3223 3222 3222 3222 3222 3222 3222 3222 3222 3222 3222 3222 3222 3222 3223 3223 3223 3223
3197 3198 3199 3201 3202 3203 3204 3205 3206 3207 3209 3210 3211 3212 3213 3214 3216 3217 3218 3220 3221 3222 3223 3224 3225 3226 3227 3227 3228 3228 3229 3229 3229 3229 3229 3230 3230 3230 3230 3230 3230 3230 3230 3229 3229 3229 3228 3228 3228 3228 3228 3228 3228 3228 3228 3227 3227 3227 3227 3226 3225 3225 3224 3224 3223 3223 3222 3223 3223 3222 3222 3222 3222 3222 3222 3222 3222 3223 3223 3223 3223 3223 3223 3223 3224
3197 3198 3200 3201 3202 3203 3204 3205 3207 3208 3209 3210 3211 3212 3213 3215 3216 3217 3219 3220 3221 3222 3223 3224 3225 3226 3227 3227 3228 3228 3229 3229 3229 3229 3229 3230 3230 3230 3230 3230 3230 3230 3230 3229 3229 3229 3229 3229 3229 3228 3228 3228 3228 3228 3227 3227 3227 3227 3226 3225 3225 3224 3224 3224 3223 3223 3223 3223 3223 3222 3222 3222 3222 3222 3222 3223 3223 3223 3223 3223 3223 3223 3223 3223 3224
3197 3198 3199 3201 3202 3203 3205 3206 3207 3208 3209 3211 3211 3212 3214 3215 3216 3218 3219 3220 3221 3222 3223 3224 3225 3226 3227 3227 3228 3228 3229 3229 3229 3229 3229 3229 3230 3230 3230 3230 3229 3229 3230 3230 3230 3229 3229 3229 3229 3228 3228 3228 3228 3228 3227 3227 3227 3227 3225 3225 3224 3224 3223 3223 3223 3223 3223 3223 3222 3222 3222 3222 3222 3222 3222 3223 3223 3223 3223 3223 3223 3223 3223 3223 3223
3197 3198 3199 3201 3202 3204 3205 3206 3207 3209 3210 3211 3212 3213 3214 3215 3217 3218 3219 3220 3221 3223 3224 3224 3225 3226 3227 3227 3228 3229 3229 3229 3229 3229 3229 3229 3230 3230 3230 3230 3229 3230 3230 3230 3230 3230 3229 3229 3229 3228 3228 3228 3228 3228 3227 3227 3227 3226 3225 3224 3224 3223 3223 3222 3222 3223 3222 3222 3222 3222 3222 3222 3222 3222 3222 3223 3223 3223 3223 3223 3223 3223 3223 3223 3223
3198 3199 3200 3201 3203 3204 3205 3207 3208 3209 3210 3211 3212 3213 3215 3216 3217 3218 3219 3220 3222 3223 3224 3224 3225 3226 3226 3227 3228 3228 3229 3229 3229 3229 3229 3230 3230 3230 3230 3230 3230 3230 3229 3229 3229 3229 3229 3229 3229 3229 3228 3227 3228 3227 3227 3227 3226 3226 3225 3224 3224 3223 3222 3221 3221 3222 3221 3221 3221 3221 3221 3222 3222 3222 3222 3222 3223 3223 3223 3223 3224 3224 3223 3223 3223
3199 3200 3201 3202 3203 3205 3206 3207 3208 3210 3211 3212 3213 3214 3215 3216 3217 3218 3219 3220 3221 3222 3223 3224 3225 3226 3226 3227 3227 3228 3228 3229 3229 3229 3230 3230 3230 3230 3230 3229 3230 3230 3230 3229 3229 3229 3229 3229 3229 3229 3228 3227 3226 3226 3226 3226 3225 3225 3224 3224 3223 3222 3221 3221 3220 3221 3221 3220 3220 3220 3221 3221 3221 3222 3222 3222 3222 3223 3223 3223 3224 3224 3224 3224 3224
3199 3200 3202 3203 3204 3205 3207 3208 3209 3210 3211 3212 3213 3214 3215 3216 3217 3218 3219 3220 3221 3222 3223 3224 3225 3225 3226 3227 3227 3228 3228 3228 3229 3229 3230 3230 3230 3230 3229 3229 3229 3229 3229 3229 3229 3228 3228 3228 3229 3229 3229 3227 3226 3226 3226 3225 3225 3224 3223 3224 3223 3223 3222 3220 3220 3220 3220 3219 3219 3219 3219 3220 3220 3220 3221 3222 3222 3222 3222 3223 3223 3224 3224 3225 3225
3199 3200 3202 3203 3204 3205 3207 3208 3209 3210 3211 3212 3213 3214 3215 3216 3217 3218 3219 3220 3221 3222 3223 3224 3224 3225 3226 3226 3227 3228 3228 3228 3229 3229 3229 3229 3229 3229 3229 3228 3229 3229 3229 3229 3229 3228 3228 3229 3229 3228 3229 3228 3226 3226 3226 3225 3225 3224 3224 3223 3223 3223 3222 3220 3219 3219 3219 3219 3218 3218 3218 3218 3219 3219 3220 3221 3221 3222 3222 3222 3223 3224 3224 3225 3225
3199 3200 3201 3203 3204 3205 3206 3208 3209 3210 3211 3212 3213 3214 3215 3215 3216 3218 3219 3220 3221 3222 3223 3223 3224 3225 3225 3226 3227 3227 3228 3228 3228 3228 3228 3229 3229 3228 3228 3228 3228 3229 3229 3228 3228 3228 3228 3228 3228 3227 3227 3227 3225 3225 3225 3225 3224 3224 3224 3223 3223 3223 3222 3221 3219 3219 3219 3218 3217 3217 3217 3217 3217 3218 3219 3220 3220 3221 3222 3222 3223 3223 3224 3225 3225
3199 3200 3201 3202 3204 3205 3206 3207 3208 3209 3210 3211 3212 3213 3214 3215 3216 3217 3218 3219 3220 3221 3222 3223 3224 3225 3225 3225 3226 3226 3227 3227 3228 3228 3228 3228 3228 3228 3228 3228 3228 3229 3229 3228 3227 3227 3228 3228 3227 3227 3226 3226 3225 3225 3224 3224 3223 3223 3223 3223 3223 3222 3222 3220 3219 3219 3218 3217 3216 3216 3216 3215 3216 3217 3218 3219 3219 3220 3221 3222 3222 3223 3224 3224 3225
3198 3200 3201 3202 3203 3204 3206 3207 3208 3209 3210 3211 3212 3213 3214 3215 3216 3217 3218 3219 3220 3221 3222 3223 3223 3224 3224 3225 3225 3225 3226 3227 3227 3227 3227 3227 3227 3227 3227 3228 3228 3228 3228 3227 3227 3227 3227 3226 3226 3226 3225 3225 3225 3224 3224 3224 3222 3222 3222 3223 3222 3222 3221 3220 3219 3218 3218 3216 3215 3215 3215 3214 3215 3216 3217 3218 3219 3219 3220 3221 3222 3222 3223 3223 3224
3198 3199 3200 3202 3203 3204 3205 3207 3208 3209 3210 3211 3212 3213 3214 3215 3216 3217 3218 3219 3220 3221 3221 3222 3223 3223 3224 3224 3224 3225 3225 3226 3226 3226 3226 3227 3227 3227 3227 3227 3228 3227 3227 3227 3226 3226 3226 3226 3225 3225 3225 3225 3224 3223 3223 3223 3222 3221 3221 3221 3220 3220 3220 3219 3218 3217 3217 3216 3215 3215 3214 3214 3214 3215 3216 3217 3218 3219 3220 3220 3221 3222 3222 3223 3223
3198 3199 3200 3201 3203 3204 3205 3206 3207 3208 3209 3210 3212 3213 3214 3215 3216 3217 3218 3219 3219 3220 3221 3221 3222 3223 3223 3224 3224 3224 3224 3225 3225 3225 3225 3226 3226 3226 3226 3226 3227 3226 3226 3226 3226 3226 3225 3225 3225 3225 3225 3224 3224 3222 3222 3222 3221 3220 3220 3220 3219 3218 3218 3218 3217 3216 3216 3215 3214 3214 3214 3214 3214 3214 3215 3216 3217 3218 3218 3219 3220 3221 3221 3222 3223
3198 3199 3200 3201 3202 3203 3205 3206 3207 3208 3209 3210 3211 3212 3213 3214 3215 3216 3217 3218 3219 3219 3220 3220 3221 3223 3223 3223 3224 3224 3224 3225 3225 3225 3225 3225 3225 3225 3225 3225 3226 3225 3225 3225 3225 3225 3224 3225 3224 3224 3224 3223 3223 3222 3221 3221 3221 3220 3219 3219 3218 3217 3217 3217 3216 3216 3215 3214 3214 3213 3213 3213 3214 3214 3215 3215 3216 3216 3217 3218 3219 3219 3220 3221 3222
3197 3198 3199 3201 3202 3203 3204 3206 3207 3208 3209 3210 3211 3212 3213 3214 3215 3216 3217 3217 3218 3219 3219 3220 3221 3222 3222 3223 3223 3224 3224 3225 3225 3225 3225 3225 3225 3225 3225 3225 3225 3225 3224 3224 3224 3224 3224 3224 3224 3223 3223 3222 3222 3221 3220 3220 3220 3219 3218 3218 3217 3216 3216 3215 3216 3216 3215 3215 3214 3213 3214 3213 3213 3214 3214 3214 3214 3215 3216 3217 3218 3219 3219 3220 3221
3196 3198 3199 3200 3201 3203 3204 3205 3206 3208 3208 3210 3211 3212 3213 3214 3215 3215 3216 3217 3217 3218 3219 3219 3220 3221 3222 3222 3223 3223 3224 3225 3225 3225 3225 3225 3225 3225 3225 3225 3225 3224 3223 3223 3223 3223 3223 3223 3223 3223 3221 3221 3221 3220 3219 3218 3218 3218 3217 3217 3216 3215 3215 3214 3215 3215 3215 3215 3214 3213 3213 3213 3213 3213 3213 3213 3214 3214 3215 3217 3218 3218 3219 3220 3220
3196 3197 3199 3200 3201 3203 3204 3205 3206 3207 3208 3209 3211 3212 3213 3213 3214 3215 3215 3216 3217 3217 3218 3219 3220 3221 3221 3222 3222 3223 3224 3224 3225 3225 3225 3225 3225 3224 3224 3224 3224 3223 3222 3222 3223 3223 3223 3222 3222 3221 3220 3220 3219 3218 3217 3216 3216 3216 3216 3216 3215 3214 3214 3213 3214 3214 3214 3214 3214 3213 3212 3212 3213 3213 3213 3213 3213 3214 3215 3216 3217 3217 3218 3219 3219
3196 3197 3198 3200 3201 3202 3204 3205 3206 3207 3208 3209 3210 3211 3212 3213 3213 3214 3215 3215 3216 3217 3217 3218 3219 3220 3221 3221 3221 3222 3223 3223 3224 3224 3224 3224 3224 3223 3223 3223 3222 3222 3222 3222 3222 3222 3222 3221 3221 3220 3219 3218 3218 3217 3216 3215 3214 3214 3214 3214 3214 3213 3213 3212 3212 3213 3214 3213 3213 3213 3212 3211 3212 3212 3212 3212 3213 3213 3214 3216 3216 3216 3216 3217 3218
3195 3197 3198 3199 3200 3202 3203 3204 3205 3206 3207 3208 3210 3211 3211 3212 3212 3213 3213 3214 3215 3216 3216 3217 3218 3218 3220 3220 3221 3221 3222 3222 3222 3222 3222 3222 3222 3222 3222 3222 3221 3221 3221 3221 3221 3221 3220 3220 3220 3219 3218 3217 3216 3215 3214 3214 3213 3213 3212 3212 3212 3212 3212 3211 3211 3212 3213 3212 3212 3212 3212 3211 3211 3212 3212 3212 3212 3213 3214 3214 3215 3215 3215 3216 3217
3195 3196 3197 3199 3200 3201 3202 3203 3205 3206 3207 3208 3209 3209 3210 3211 3211 3212 3212 3213 3214 3215 3215 3216 3216 3217 3218 3219 3220 3220 3220 3221 3221 3221 3221 3221 3220 3220 3221 3221 3220 3220 3220 3220 3220 3220 3219 3219 3218 3218 3217 3215 3214 3213 3212 3212 3212 3212 3211 3211 3210 3211 3211 3211 3211 3211 3211 3211 3211 3212 3212 3212 3211 3211 3212 3212 3212 3213 3213 3213 3214 3214 3214 3215 3215
3194 3195 3196 3198 3199 3200 3201 3202 3204 3205 3206 3206 3207 3208 3209 3209 3210 3210 3211 3212 3213 3213 3214 3215 3215 3216 3217 3218 3219 3219 3219 3219 3220 3220 3219 3219 3219 3219 3219 3219 3219 3219 3219 3219 3219 3219 3218 3217 3217 3216 3215 3214 3213 3212 3211 3210 3210 3210 3210 3210 3210 3210 3210 3210 3211 3211 3210 3210 3210 3211 3212 3212 3211 3211 3211 3212 3212 3212 3212 3213 3213 3213 3213 3213 3214
3192 3194 3195 3197 3198 3199 3200 3201 3202 3204 3205 3205 3206 3207 3207 3208 3209 3209 3210 3211 3212 3212 3213 3213 3214 3215 3216 3217 3218 3218 3218 3218 3218 3218 3218 3218 3218 3218 3218 3218 3218 3218 3218 3218 3218 3217 3217 3216 3216 3215 3214 3213 3212 3211 3210 3209 3209 3209 3209 3209 3209 3209 3210 3210 3210 3210 3210 3209 3209 3210 3210 3210 3209 3210 3210 3211 3211 3211 3211 3211 3212 3212 3212 3212 3212
3190 3192 3194 3195 3196 3197 3199 3200 3201 3202 3203 3204 3205 3205 3206 3207 3208 3208 3209 3210 3210 3211 3212 3212 3213 3214 3214 3215 3216 3217 3217 3217 3217 3217 3217 3217 3217 3217 3217 3216 3216 3216 3216 3217 3217 3216 3216 3215 3215 3214 3213 3213 3212 3211 3210 3209 3208 3207 3208 3208 3208 3209 3209 3209 3209 3209 3210 3210 3210 3210 3209 3208 3208 3208 3209 3210 3210 3210 3209 3210 3210 3211 3211 3211 3211
3189 3190 3192 3194 3195 3196 3198 3199 3199 3201 3202 3203 3204 3204 3205 3206 3207 3207 3208 3208 3209 3210 3210 3211 3212 3213 3213 3214 3215 3215 3215 3216 3216 3216 3216 3216 3216 3216 3216 3216 3215 3215 3215 3216 3215 3215 3215 3214 3214 3213 3213 3213 3212 3211 3210 3209 3207 3207 3207 3207 3207 3208 3208 3208 3208 3208 3209 3209 3210 3210 3210 3209 3207 3207 3208 3209 3209 3209 3208 3208 3209 3209 3209 3210 3210
3187 3188 3190 3192 3193 3195 3196 3197 3198 3199 3200 3202 3202 3203 3204 3205 3205 3206 3206 3207 3208 3208 3209 3210 3211 3212 3213 3213 3213 3213 3214 3214 3214 3214 3214 3214 3215 3215 3215 3215 3215 3215 3215 3215 3215 3214 3214 3214 3214 3213 3213 3212 3211 3210 3209 3208 3208 3207 3206 3206 3207 3207 3207 3207 3208 3208 3208 3208 3208 3209 3209 3209 3208 3206 3206 3207 3208 3208 3207 3207 3207 3207 3208 3208 3209
3185 3187 3189 3190 3192 3193 3195 3196 3197 3198 3199 3200 3201 3202 3202 3203 3203 3204 3204 3205 3206 3206 3207 3208 3209 3210 3211 3212 3212 3212 3212 3212 3213 3213 3213 3213 3213 3213 3213 3214 3214 3214 3214 3214 3214 3214 3215 3214 3214 3213 3213 3212 3211 3210 3209 3208 3207 3206 3206 3206 3206 3206 3206 3207 3207 3207 3207 3207 3207 3207 3208 3208 3207 3207 3206 3206 3206 3207 3206 3206 3206 3205 3205 3206 3206
3183 3185 3187 3188 3190 3192 3193 3194 3195 3196 3197 3198 3199 3200 3200 3201 3201 3202 3202 3203 3204 3205 3206 3207 3208 3209 3210 3210 3210 3210 3210 3211 3211 3211 3211 3212 3212 3212 3212 3213 3213 3213 3213 3214 3214 3215 3214 3214 3213 3212 3212 3211 3211 3210 3209 3208 3207 3206 3206 3206 3206 3206 3206 3206 3206 3206 3207 3207 3206 3206 3207 3207 3206 3206 3205 3205 3205 3205 3205 3205 3204 3204 3203 3203 3204
3180 3183 3184 3186 3187 3189 3191 3192 3193 3194 3195 3196 3197 3198 3199 3199 3199 3200 3201 3202 3203 3204 3205 3206 3207 3207 3208 3208 3208 3208 3208 3209 3209 3210 3210 3210 3211 3211 3212 3212 3212 3213 3213 3214 3214 3214 3214 3213 3213 3212 3211 3211 3211 3210 3209 3208 3207 3206 3206 3206 3205 3205 3205 3205 3205 3205 3206 3206 3205 3205 3205 3205 3205 3205 3204 3205 3205 3204 3204 3204 3203 3202 3203 3202 3202
3178 3180 3181 3183 3185 3186 3188 3190 3191 3192 3193 3194 3194 3196 3197 3197 3198 3198 3199 3200 3202 3203 3203 3204 3205 3205 3206 3207 3207 3206 3206 3207 3208 3208 3208 3209 3210 3210 3211 3211 3212 3212 3213 3213 3213 3213 3213 3212 3212 3212 3211 3210 3210 3209 3209 3208 3207 3206 3206 3205 3205 3205 3204 3204 3204 3204 3204 3204 3204 3203 3203 3203 3203 3203 3203 3204 3204 3204 3204 3203 3202 3201 3202 3202 3200
3175 3177 3178 3180 3182 3183 3185 3187 3188 3189 3191 3192 3192 3193 3195 3195 3196 3196 3197 3198 3200 3201 3201 3202 3203 3203 3204 3205 3205 3204 3205 3205 3206 3207 3207 3208 3209 3210 3210 3211 3211 3212 3212 3212 3212 3212 3212 3211 3211 3211 3211 3210 3209 3209 3208 3207 3207 3206 3206 3205 3205 3204 3204 3203 3203 3203 3203 3203 3202 3202 3201 3201 3200 3200 3200 3201 3202 3203 3203 3203 3202 3201 3201 3201 3200
3172 3174 3176 3177 3178 3180 3181 3183 3185 3187 3188 3189 3190 3191 3192 3193 3193 3194 3195 3196 3198 3199 3199 3200 3201 3201 3202 3203 3202 3202 3203 3204 3205 3206 3206 3207 3208 3209 3209 3210 3210 3211 3211 3211 3211 3211 3210 3211 3211 3210 3210 3209 3209 3208 3208 3207 3206 3206 3205 3204 3204 3203 3203 3202 3202 3202 3202 3202 3201 3200 3200 3200 3199 3199 3199 3199 3200 3201 3201 3201 3201 3201 3200 3200 3200
3169 3171 3172 3173 3175 3176 3178 3180 3182 3184 3185 3186 3188 3189 3190 3191 3191 3192 3193 3194 3196 3197 3197 3198 3199 3199 3200 3201 3200 3201 3201 3203 3204 3205 3206 3206 3207 3207 3208 3209 3209 3209 3210 3210 3210 3210 3210 3210 3210 3210 3209 3209 3208 3208 3208 3207 3206 3205 3204 3204 3203 3202 3202 3201 3201 3201 3201 3201 3200 3200 3199 3199 3198 3198 3199 3198 3198 3199 3198 3198 3199 3199 3199 3199 3198